This demonstration page uses our WeatherBlox Daily Observations layout. Learn more.

Left ArrowRight Arrow

41.55636, -103.73856

Hourly Observations for June 15, 2015

Temp ( °F °C ) Dew Point ( °F °C ) Humidity (%) Winds ( mph kmh ) Pressure ( in mb ) Visibility ( mi km ) Precip ( " mm )
12:53 am 00:53 Cloudy 63 17.2 61 16.1 93 93 N 7 11 30.02 1017 10 16.0934 0 0.0254
1:27 am 01:27 Cloudy with Rain 61 16.1 61 16.1 100 100 NNE 9 15 30 1016 3 4.82802 0.16 4.064
1:53 am 01:53 Mostly Cloudy 63 17 N/A N/A NE 13 20 30 1016 10 16.0934 0.18 4.572
2:53 am 02:53 Mostly Cloudy 61 16 N/A N/A NE 10 17 29.99 1016 10 16.0934 0 0
3:53 am 03:53 Cloudy 61 16.1 61 16.1 100 100 NE 12 19 30.01 1016 10 16.0934 0 0
4:53 am 04:53 Cloudy 61 16.1 60 15.6 97 97 NNE 9 15 30.05 1018 10 16.0934 0 0
5:17 am 05:17 Cloudy with Light Rain 60 15.6 60 15.6 100 100 NNE 12 19 30.03 1017 7 11.26538 0.01 0.254
5:25 am 05:25 Cloudy with Light Rain 60 15.6 60 15.6 100 100 NE 14 22 30.03 1017 6 9.65604 0.02 0.508
5:53 am 05:53 Mostly Cloudy 60 15.6 58 14.4 93 93 E 12 19 30.04 1017 10 16.0934 0.02 0.508
6:53 am 06:53 Cloudy 61 16.1 58 14.4 90 90 ENE 12 19 30.07 1018 10 16.0934 0 0
7:03 am 07:03 Cloudy 61 16 57 14 88 88 ENE 13 20 30.03 1017 10 16.0934 0 0
7:53 am 07:53 Cloudy 62 16.7 57 13.9 84 84 ENE 13 20 30.09 1019 10 16.0934 0 0
8:10 am 08:10 Mostly Cloudy 63 17 55 13 77 77 E 9 15 30.06 1018 10 16.0934 0 0
8:53 am 08:53 Partly Cloudy 65 18.3 56 13.3 73 73 VRB 6 9 30.12 1020 10 16.0934 0 0
9:53 am 09:53 Mostly Cloudy 66 18.9 56 13.3 70 70 E 9 15 30.12 1020 10 16.0934 0 0
10:53 am 10:53 Cloudy 67 19.4 55 12.8 66 66 E 10 17 30.11 1020 10 16.0934 0 0
11:53 am 11:53 Cloudy 68 20 56 13.3 65 65 ESE 10 17 30.11 1020 10 16.0934 0 0
12:53 pm 12:53 Cloudy 70 21.1 55 12.8 59 59 ESE 9 15 30.1 1019 10 16.0934 0 0
1:53 pm 13:53 Cloudy 70 21.1 54 12.2 57 57 ESE 10 17 30.09 1019 10 16.0934 0 0
2:53 pm 14:53 Cloudy 73 22.8 55 12.8 53 53 SSE 13 20 30.07 1018 10 16.0934 0 0
3:53 pm 15:53 Mostly Cloudy 74 23.3 54 12.2 50 50 SE 14 22 30.06 1018 10 16.0934 0 0
4:53 pm 16:53 Mostly Cloudy 73 22.8 52 11.1 48 48 SE 12 19 30.06 1018 10 16.0934 0 0
5:53 pm 17:53 Partly Cloudy 72 22.2 52 11.1 50 50 ESE 15 24 30.05 1018 10 16.0934 0 0
6:53 pm 18:53 Mostly Sunny 70 21.1 51 10.6 51 51 SE 9 15 30.07 1018 10 16.0934 0 0
7:53 pm 19:53 Sunny 69 20.6 52 11.1 55 55 SE 17 28 30.03 1017 10 16.0934 0 0
8:53 pm 20:53 Clear 67 19.4 53 11.7 61 61 ESE 13 20 30.04 1017 10 16.0934 0 0
9:53 pm 21:53 Clear 65 18.3 54 12.2 68 68 ESE 9 15 30.1 1019 10 16.0934 0 0
10:53 pm 22:53 Cloudy 64 17.8 55 12.8 73 73 E 9 15 30.08 1019 10 16.0934 0 0
11:53 pm 23:53 Cloudy 64 17.8 54 12.2 70 70 SE 13 20 30.08 1019 10 16.0934 0 0

Powered by AerisWeather